When you browse on this site, cookies collect data to enhance your experience and personalize the content and advertising you see.
Visit our Privacy Policy to learn more. By continuing to use the site, you agree to this use of cookies and data.
  • Em Portugal
  • Lista de países
  • Para 7 dias
  • Temperatura da água
  • Mapas de satélite
  • Mapa do tempo
  • Widgets de tempo
  • user-avatar
    Iniciar Sessão

    Previsão horária em Kowalowa

    Hoje, 19 Dezembro, Quarta-feira

    Tempo Temperatura Precipitação Vento Pressão Humidade
    00:00 -4°C° 0 mm 2 m/s 720 mmHg 92%
    01:00 -4°C° 0 mm 2 m/s 720 mmHg 92%
    02:00 -5°C° 0 mm 3 m/s 719 mmHg 91%
    03:00 -5°C° 0 mm 3 m/s 719 mmHg 91%
    04:00 -5°C° 0 mm 3 m/s 719 mmHg 91%
    05:00 -5°C° 0 mm 3 m/s 718 mmHg 90%
    06:00 -5°C° 0 mm 3 m/s 718 mmHg 89%
    07:00 -5°C° 0 mm 3 m/s 718 mmHg 88%
    08:00 -4°C° 0 mm 4 m/s 718 mmHg 86%
    09:00 -4°C° 0 mm 4 m/s 718 mmHg 83%
    10:00 -4°C° 0 mm 5 m/s 718 mmHg 81%
    11:00 -4°C° 0 mm 5 m/s 718 mmHg 80%
    12:00 -2°C° 0 mm 5 m/s 717 mmHg 78%
    13:00 -2°C° 0 mm 5 m/s 717 mmHg 77%
    14:00 -4°C° 0 mm 5 m/s 717 mmHg 79%
    15:00 -4°C° 0 mm 5 m/s 716 mmHg 80%
    16:00 -4°C° 0 mm 4 m/s 716 mmHg 81%
    17:00 -4°C° 0 mm 4 m/s 716 mmHg 81%
    18:00 -4°C° 0 mm 4 m/s 716 mmHg 81%
    19:00 -4°C° 0 mm 4 m/s 716 mmHg 81%
    20:00 -4°C° 0 mm 4 m/s 716 mmHg 81%
    21:00 -4°C° 0 mm 4 m/s 715 mmHg 81%
    22:00 -4°C° 0 mm 4 m/s 715 mmHg 80%
    23:00 -5°C° 0 mm 4 m/s 715 mmHg 80%

    Amanhã, 20 Dezembro, Quinta-feira

    Tempo Temperatura Precipitação Vento Pressão Humidade
    00:00 -5°C° 0 mm 4 m/s 715 mmHg 80%
    01:00 -5°C° 0 mm 4 m/s 715 mmHg 80%
    02:00 -5°C° 0 mm 4 m/s 715 mmHg 81%
    03:00 -5°C° 0 mm 4 m/s 715 mmHg 82%
    04:00 -6°C° 0 mm 3 m/s 715 mmHg 82%
    05:00 -6°C° 0 mm 3 m/s 715 mmHg 83%
    06:00 -6°C° 0 mm 3 m/s 715 mmHg 83%
    07:00 -6°C° 0 mm 3 m/s 715 mmHg 83%
    08:00 -6°C° 0 mm 3 m/s 715 mmHg 83%
    09:00 -5°C° 0 mm 3 m/s 715 mmHg 82%
    10:00 -5°C° 0 mm 3 m/s 715 mmHg 81%
    11:00 -4°C° 0.2 mm 3 m/s 715 mmHg 82%
    12:00 -4°C° 0.2 mm 3 m/s 715 mmHg 83%
    13:00 -4°C° 0.2 mm 3 m/s 715 mmHg 85%
    14:00 -2°C° 0.2 mm 3 m/s 715 mmHg 86%
    15:00 -2°C° 0.2 mm 3 m/s 715 mmHg 88%
    16:00 -2°C° 0.2 mm 3 m/s 715 mmHg 89%
    17:00 -2°C° 0 mm 3 m/s 715 mmHg 89%
    18:00 -2°C° 0 mm 3 m/s 716 mmHg 90%
    19:00 -2°C° 0 mm 3 m/s 716 mmHg 90%
    20:00 -1°C° 0 mm 3 m/s 716 mmHg 90%
    21:00 -1°C° 0 mm 3 m/s 716 mmHg 91%
    22:00 -1°C° 0 mm 3 m/s 716 mmHg 91%
    23:00 -1°C° 0 mm 3 m/s 716 mmHg 91%

    Depois de amanhã, 21 Dezembro, Sexta-feira

    Tempo Temperatura Precipitação Vento Pressão Humidade
    00:00 -1°C° 0 mm 3 m/s 716 mmHg 91%
    01:00 -2°C° 0 mm 4 m/s 716 mmHg 91%
    02:00 -2°C° 0 mm 4 m/s 716 mmHg 91%
    03:00 -2°C° 0 mm 4 m/s 716 mmHg 90%
    04:00 -2°C° 0 mm 4 m/s 715 mmHg 90%
    05:00 -2°C° 0 mm 4 m/s 715 mmHg 90%
    06:00 -2°C° 0 mm 4 m/s 715 mmHg 89%
    07:00 -2°C° 0 mm 4 m/s 715 mmHg 89%
    08:00 -1°C° 0 mm 4 m/s 715 mmHg 89%
    09:00 -1°C° 0 mm 4 m/s 714 mmHg 88%
    10:00 -1°C° 0 mm 4 m/s 714 mmHg 88%
    11:00 -1°C° 0.2 mm 4 m/s 714 mmHg 88%
    12:00 0°C° 0.2 mm 4 m/s 713 mmHg 87%
    13:00 0°C° 0.2 mm 4 m/s 712 mmHg 87%
    14:00 0°C° 0.5 mm 5 m/s 712 mmHg 87%
    15:00 0°C° 0.5 mm 5 m/s 711 mmHg 86%
    16:00 -1°C° 0.5 mm 6 m/s 710 mmHg 85%
    17:00 -1°C° 1.1 mm 6 m/s 710 mmHg 86%
    18:00 -1°C° 1.1 mm 7 m/s 709 mmHg 86%
    19:00 -1°C° 1.1 mm 7 m/s 709 mmHg 86%
    20:00 0°C° 0.3 mm 7 m/s 709 mmHg 87%
    21:00 +2°C° 0.3 mm 7 m/s 708 mmHg 88%
    22:00 +3°C° 0.3 mm 7 m/s 708 mmHg 89%
    23:00 +3°C° 0.1 mm 6 m/s 709 mmHg 89%

    22 Dezembro, Sábado

    Tempo Temperatura Precipitação Vento Pressão Humidade
    00:00 +3°C° 0.1 mm 6 m/s 709 mmHg 89%
    01:00 +3°C° 0.1 mm 6 m/s 709 mmHg 89%
    02:00 +2°C° 0 mm 6 m/s 709 mmHg 87%
    03:00 +1°C° 0 mm 6 m/s 710 mmHg 85%
    04:00 +1°C° 0 mm 6 m/s 710 mmHg 83%
    05:00 +1°C° 0 mm 5 m/s 710 mmHg 84%
    06:00 +1°C° 0 mm 5 m/s 710 mmHg 84%
    07:00 0°C° 0 mm 5 m/s 710 mmHg 84%
    08:00 +1°C° 0 mm 4 m/s 710 mmHg 85%
    09:00 +1°C° 0 mm 4 m/s 710 mmHg 85%
    10:00 +3°C° 0 mm 4 m/s 710 mmHg 86%
    11:00 +2°C° 0.1 mm 5 m/s 709 mmHg 87%
    12:00 +3°C° 0.1 mm 5 m/s 709 mmHg 87%
    13:00 +5°C° 0.1 mm 5 m/s 708 mmHg 88%
    14:00 +4°C° 0.4 mm 6 m/s 708 mmHg 87%
    15:00 +4°C° 0.4 mm 6 m/s 708 mmHg 86%
    16:00 +4°C° 0.4 mm 7 m/s 708 mmHg 85%
    17:00 +3°C° 0 mm 7 m/s 708 mmHg 83%
    18:00 +3°C° 0 mm 6 m/s 709 mmHg 82%
    19:00 +2°C° 0 mm 6 m/s 709 mmHg 80%
    20:00 +2°C° 0.1 mm 6 m/s 710 mmHg 81%
    21:00 +2°C° 0.1 mm 7 m/s 710 mmHg 82%
    22:00 +2°C° 0.1 mm 7 m/s 711 mmHg 83%
    23:00 +2°C° 0 mm 7 m/s 711 mmHg 84%

    23 Dezembro, Domingo

    Tempo Temperatura Precipitação Vento Pressão Humidade
    00:00 +2°C° 0 mm 6 m/s 712 mmHg 84%
    01:00 +1°C° 0 mm 6 m/s 712 mmHg 85%
    02:00 +1°C° 0 mm 6 m/s 712 mmHg 85%
    03:00 +1°C° 0 mm 6 m/s 712 mmHg 84%
    04:00 +1°C° 0 mm 6 m/s 713 mmHg 84%
    05:00 +1°C° 0 mm 6 m/s 713 mmHg 84%
    06:00 +1°C° 0 mm 6 m/s 713 mmHg 85%
    07:00 +1°C° 0 mm 6 m/s 714 mmHg 85%
    08:00 +1°C° 0 mm 6 m/s 714 mmHg 84%
    09:00 +1°C° 0 mm 6 m/s 714 mmHg 82%
    10:00 +1°C° 0 mm 6 m/s 715 mmHg 80%
    11:00 +2°C° 0 mm 6 m/s 715 mmHg 79%
    12:00 +2°C° 0 mm 6 m/s 715 mmHg 77%
    13:00 +2°C° 0 mm 6 m/s 715 mmHg 75%
    14:00 +2°C° 0 mm 6 m/s 715 mmHg 77%
    15:00 +1°C° 0 mm 5 m/s 715 mmHg 79%
    16:00 +1°C° 0 mm 5 m/s 715 mmHg 80%
    17:00 +1°C° 0 mm 5 m/s 715 mmHg 81%
    18:00 +1°C° 0 mm 5 m/s 715 mmHg 82%
    19:00 0°C° 0 mm 5 m/s 715 mmHg 83%
    20:00 0°C° 0 mm 5 m/s 716 mmHg 83%
    21:00 0°C° 0 mm 5 m/s 716 mmHg 84%
    22:00 0°C° 0 mm 5 m/s 716 mmHg 84%
    23:00 0°C° 0 mm 5 m/s 716 mmHg 85%

    24 Dezembro, Segunda-feira

    Tempo Temperatura Precipitação Vento Pressão Humidade
    00:00 -1°C° 0 mm 4 m/s 716 mmHg 87%
    01:00 -1°C° 0 mm 4 m/s 716 mmHg 88%
    02:00 0°C° 0 mm 3 m/s 716 mmHg 89%
    03:00 0°C° 0 mm 3 m/s 716 mmHg 90%
    04:00 0°C° 0 mm 3 m/s 716 mmHg 90%
    05:00 0°C° 0 mm 3 m/s 716 mmHg 91%
    06:00 +1°C° 0 mm 2 m/s 717 mmHg 91%
    07:00 +1°C° 0 mm 2 m/s 717 mmHg 91%
    08:00 +1°C° 0 mm 2 m/s 717 mmHg 90%
    09:00 +1°C° 0 mm 2 m/s 717 mmHg 89%
    10:00 +2°C° 0 mm 2 m/s 717 mmHg 88%
    11:00 +2°C° 0 mm 2 m/s 717 mmHg 87%
    12:00 +2°C° 0 mm 3 m/s 717 mmHg 85%
    13:00 +2°C° 0 mm 3 m/s 717 mmHg 83%
    14:00 +2°C° 0 mm 2 m/s 717 mmHg 86%
    15:00 +2°C° 0 mm 2 m/s 717 mmHg 88%
    16:00 +1°C° 0 mm 2 m/s 717 mmHg 90%
    17:00 +1°C° 0 mm 2 m/s 717 mmHg 90%
    18:00 +1°C° 0 mm 2 m/s 717 mmHg 90%
    19:00 +1°C° 0 mm 2 m/s 718 mmHg 90%
    20:00 -1°C° 0 mm 2 m/s 718 mmHg 90%
    21:00 -1°C° 0 mm 2 m/s 718 mmHg 90%
    22:00 -1°C° 0 mm 2 m/s 718 mmHg 90%
    23:00 -2°C° 0 mm 2 m/s 718 mmHg 91%
    Mostrar mais